www.pogodaiklimat.ru

Погода и климат >> Архив погоды >> Таиланд >> Прачуап Хирихан


ПОГОДА в Прачуап Хирихан

  • Прогноз погоды в Прачуап Хирихан
  • Монитор погоды в Прачуап Хирихан

АРХИВ ПОГОДЫ в Прачуап Хирихан

Время (UTC), дата Ветер
(напр.,м/с)
 
Видим.   Явления Облачность Т
(С)
Тd
(С)
f
(%)
Тe
(С)
Тes
(С)
Комфортность P
(гПа)
Po
(гПа)
Тmin
(С)
Tmax
(С)
R
(мм)
R24
(мм)
S
(см)
00 16.04 штиль 0 10 км 6/5 600 м
[Cu Sc Ac lent Cs]
+27.2 +24.2 84 +38 +39 очень
душно
1009.7 1008.9 +25.8
03 16.04 ЮВ 7 10 км 6/5 600 м
[Cu Sc Ac lent Cs]
+35.5 +25.9 58 +51 +53 опасность
перегрева
1011.5 1010.8
06 16.04 Ю 7 10 км 6/5 600 м
[Cu Sc Ac lent Cs]
+35.5 +26.5 60 +52 +55 опасность
перегрева
1009.9 1009.2
09 16.04 ЮВ 5 10 км 6/5 600 м
[Cu Sc Ac lent Cs]
+34.0 +27.3 68 +53 +55 опасность
перегрева
1007.3 1006.6
12 16.04 штиль 0 10 км 6/5 600 м
[Cu Sc Ac lent Cs]
+31.4 +26.5 75 +48 +48 опасность
перегрева
1008.7 1007.9 +36.2
15 16.04 штиль 0 10 км 6/5 600 м
[Cu Sc Ac lent Cs]
+28.9 +26.9 89 +45 +45 опасность
перегрева
1010.1 1009.4
18 16.04 штиль 0 10 км 6/5 600 м
[Cu Sc Ac lent Cs]
+28.1 +24.8 82 +40 +40 очень
душно
1010.1 1009.3
21 16.04 штиль 0 10 км 6/5 600 м
[Cu Sc Ac lent Cs]
+27.4 +24.1 82 +38 +38 очень
душно
1008.6 1007.8
00 17.04 штиль 0 10 км 6/3 600 м
[Cu med, cong Ac lent Cs]
+27.4 +24.2 83 +38 +39 очень
душно
1010.3 1009.5 +26.7
03 17.04 ЮВ 4 10 км 5/3 600 м
[Sc Cs]
+34.3 +26.6 64 +51 +58 опасность
перегрева
1012.0 1011.2
06 17.04 Ю 6 10 км 5/3 600 м
[Cu med, cong Cs]
+35.0 +26.4 61 +51 +57 опасность
перегрева
1009.9 1009.2
09 17.04 Ю 8 10 км 5/3 600 м
[Cu med, cong Cs]
+34.5 +28.4 71 +57 +57 опасность
перегрева
1007.5 1006.7
12 17.04 Ю 6 10 км 8/5 600 м
[Cu Sc Ac As Cs]
+31.4 +27.0 78 +49 +49 опасность
перегрева
1008.3 1007.6 +36.5
15 17.04 Ю 2 10 км 5/3 600 м
[Cu med, cong Cs]
+30.6 +26.3 78 +47 +47 опасность
перегрева
1010.0 1009.3
18 17.04 З 3 10 км 8/5 600 м
[Cu Sc Ac As Cs]
+29.4 +25.3 79 +43 +43 опасность
перегрева
1009.4 1008.6
21 17.04 штиль 0 10 км 8/3 600 м
[Sc Ac As Cs]
+28.7 +24.1 76 +40 +40 очень
душно
1008.1 1007.3
00 18.04 З 2 10 км 6/3 600 м
[Sc Cs]
+28.6 +25.6 84 +42 +43 опасность
перегрева
1009.7 1008.9 +28.0
03 18.04 ЮВ 6 10 км 6/3 600 м
[Sc Cs]
+34.5 +26.5 63 +51 +55 опасность
перегрева
1010.7 1009.9
06 18.04 ЮВ 7 10 км 6/3 600 м
[Sc Cs]
+33.7 +25.7 63 +49 +53 опасность
перегрева
1007.4 1006.6
09 18.04 З 6 10 км 10/5 600 м
[Sc Ac As]
+31.7 +23.0 60 +42 +42 опасность
перегрева
1007.1 1006.3
12 18.04 З 1 10 км 8/5 600 м
[Sc Ac As Cs]
+29.9 +22.2 63 +39 +39 очень
душно
1008.3 1007.5 +36.0
15 18.04 штиль 0 10 км 8/5 600 м
[Sc Ac As Cs]
+28.2 +22.4 71 +37 +37 очень
душно
1009.7 1008.9
18 18.04 ЮЗ 4 10 км 8/5 600 м
[Sc Ac As Cs]
+27.9 +22.3 72 +37 +37 очень
душно
1008.3 1007.5
21 18.04 штиль 0 10 км 6/3 600 м
[Cu med, cong Cs]
+27.4 +22.4 74 +36 +36 очень
душно
1007.4 1006.6
00 19.04 штиль 0 10 км 6/5 600 м
[Cu Sc Ac lent Cs]
+27.4 +24.1 82 +38 +39 очень
душно
1007.6 1006.8 +25.8
03 19.04 Ю 8 10 км 6/5 600 м
[Cu Sc Ac lent Cs]
+33.8 +23.8 56 +45 +46 опасность
перегрева
1009.0 1008.3
06 19.04 Ю 6 10 км 6/5 600 м
[Cu Sc Ac lent Cs]
+34.4 +27.7 68 +54 +58 опасность
перегрева
1007.4 1006.7
09 19.04 Ю 8 10 км 6/5 600 м
[Cu Sc Ac lent Cs]
+34.4 +26.8 65 +52 +53 опасность
перегрева
1004.6 1003.9
12 19.04 Ю 8 10 км 6/5 600 м
[Cu Sc Ac lent Cs]
+31.9 +27.6 78 +51 +51 опасность
перегрева
1005.5 1004.8 +35.2
15 19.04 штиль 0 10 км 6/5 600 м
[Cu Sc Ac lent Cs]
+30.6 +23.8 67 +42 +42 опасность
перегрева
1007.8 1007.0
18 19.04 штиль 0 10 км 6/5 600 м
[Cu Sc Ac lent Cs]
+29.8 +23.6 69 +40 +40 очень
душно
1006.5 1005.7
21 19.04 штиль 0 10 км 6/5 600 м
[Cu Sc Ac lent Cs]
+28.6 +24.0 76 +40 +40 очень
душно
1004.7 1004.0
00 20.04 штиль 0 10 км 3/0
[Cs]
+28.0 +23.6 77 +38 +39 очень
душно
1006.5 1005.8 +27.8
03 20.04 штиль 0 12 км 3/0
[Cs]
+35.0 +21.3 45 +43 +62 опасность
перегрева
1007.6 1006.8
06 20.04 ЮВ 10 12 км 3/0
[Cs]
+36.0 +25.9 56 +51 +52 опасность
перегрева
1007.5 1006.7
09 20.04 Ю 10 12 км 5/3 600 м
[Cu med, cong Cs]
+35.0 +26.7 62 +52 +52 опасность
перегрева
1004.8 1004.0
12 20.04 Ю 4 10 км 8/3 600 м
[Cu med, cong Cs]
+32.2 +27.5 76 +51 +51 опасность
перегрева
1004.3 1003.5 +37.5
15 20.04 штиль 0 10 км 8/3 600 м
[Cu med, cong Cs]
+30.8 +26.6 78 +47 +47 опасность
перегрева
1005.7 1004.9
18 20.04 штиль 0 10 км 8/3 600 м
[Sc Cs]
+29.5 +26.0 81 +44 +44 опасность
перегрева
1006.0 1005.2
21 20.04 штиль 0 10 км 8/3 600 м
[Sc Cs]
+28.0 +25.1 84 +40 +40 очень
душно
1004.5 1003.7
00 21.04 штиль 0 10 км 4/0
[Cs]
+28.0 +23.9 78 +39 +40 очень
душно
1006.4 1005.6 +27.2
03 21.04 Ю 3 10 км 6/3 600 м
[Cu med, cong Cs]
+35.5 +24.2 52 +47 +55 опасность
перегрева
1007.4 1006.6
06 21.04 ЮВ 8 10 км 4/3 600 м
[Cu med, cong Cs]
+36.4 +26.3 56 +52 +55 опасность
перегрева
1005.1 1004.3
09 21.04 Ю 5 10 км 4/3 600 м
[Cu med, cong Cs]
+35.1 +26.5 61 +52 +55 опасность
перегрева
1004.2 1003.5
12 21.04 Ю 4 10 км 4/3 600 м
[Cu med, cong Cs]
+32.4 +25.8 68 +48 +48 опасность
перегрева
1004.2 1003.4 +37.4
15 21.04 штиль 0 10 км 4/3 600 м
[Cu med, cong Cs]
+30.7 +25.3 73 +45 +45 опасность
перегрева
1005.4 1004.7
18 21.04 штиль 0 10 км 6/3 600 м
[Cu med, cong Cs]
+29.7 +25.0 76 +43 +43 опасность
перегрева
1006.6 1005.9
21 21.04 штиль 0 10 км 6/3 600 м
[Cu med, cong Cs]
+28.0 +25.1 84 +40 +40 очень
душно
1004.9 1004.1
00 22.04 штиль 0 6000 м дымка 6/5 600 м
[Cu Sc Ac lent Cs]
+28.5 +25.5 84 +42 +43 опасность
перегрева
1006.7 1005.9 +25.0
03 22.04 Ю 6 8000 м дымка 6/5 600 м
[Cu Sc Ac lent Cs]
+34.4 +27.4 67 +53 +56 опасность
перегрева
1007.8 1007.1
06 22.04 ЮВ 6 10 км 6/5 600 м
[Cu Sc Ac lent Cs]
+36.0 +27.7 62 +55 +59 опасность
перегрева
1007.1 1006.4
09 22.04 ЮВ 8 10 км 6/5 600 м
[Cu Sc Ac lent Cs]
+33.7 +27.1 68 +52 +52 опасность
перегрева
1004.5 1003.7
12 22.04 штиль 0 10 км 6/5 600 м
[Cu Sc Ac lent Cs]
+31.3 +27.3 79 +50 +50 опасность
перегрева
1006.1 1005.3 +37.5
15 22.04 штиль 0 10 км 6/5 600 м
[Cu Sc Ac lent Cs]
+31.0 +26.8 78 +48 +48 опасность
перегрева
1007.6 1006.8
18 22.04 штиль 0 10 км 6/5 600 м
[Cu Sc Ac lent Cs]
+30.1 +26.5 81 +46 +46 опасность
перегрева
1007.5 1006.7
21 22.04 штиль 0 10 км 6/5 600 м
[Cu Sc Ac lent Cs]
+27.8 +25.2 86 +40 +40 очень
душно
1007.2 1006.4

 

Местоположение метеостанции Прачуап Хирихан (Таиланд): широта 11.82 долгота 99.82 высота над уровнем моря 5 м.

В архиве по умолчанию представлена погода в Прачуап Хирихан за последнюю неделю. Архивные данные за месяц целиком и за предыдущие месяцы, начиная с января 2011 года, Вы можете получить, выбрав интересующий диапазон дат из раскрывающегося списка и нажав кнопку "Ввод!".


*Определитесь, кто Вы:
робот инопланетянин человек

Внимание! Время в таблицах - всемирное. Для получения местного времени необходимо прибавить поправку, которая равна 7 ч.

Смотрите также архив погоды в соседних городах и на ближайших метеорологических станциях:

Погода в Нонг Флуб Агромете (Таиланд) (85 км)
Погода в Хуахине (Таиланд) (86 км)
Погода в Мьей (Мьянма) (149 км)
Погода в Пхетчабури (Таиланд) (150 км)
Погода в Саттахипе (Таиланд) (158 км)
Погода в Чумпхоне (Таиланд) (165 км)
Погода в Паттайе (Таиланд) (167 км)
Погода в Хуайпонг Агромете (Таиланд) (175 км)
Погода в Самутсонгкхраме (Таиланд) (178 км)
Погода в Сави Агромете (Таиланд) (183 км)

Пояснения к столбцам:

Ветер - указаны скорость ветра в м/с - средняя за 10 мин, порывы в срок и между сроками (в фигурных скобках) и направление, откуда дует ветер: С - северный, СВ - северо-восточный, В - восточный, ЮВ - юго-восточный, Ю - южный, ЮЗ - юго-западный, З - западный, СЗ - северо-западный.
Видимость - горизонтальная дальность видимости в метрах или километрах. При видимости от 1 до 10 км при отсутствии осадков обычно наблюдается дымка, при ухудшении видимости до 1 км и менее - туман. В сухую погоду видимость может ухудшаться дымом, пылью или мглою.
Явления - указаны атмосферные явления, наблюдавшиеся в срок или в последний час перед сроком; фигурными скобками обозначены явления, наблюдавшиеся между сроками (за 1-3 часа до срока); квадратными скобками обозначены град или гололедные отложения с указанием их диаметра в мм.
Облачность - указаны через наклонную черту общая и нижняя облачность в баллах и высота нижней границы облаков в метрах; квадратными скобками обозначены формы облаков: Ci - перистые, Cs - перисто-слоистые, Cc - перисто-кучевые, Ac - высококучевые, As - высокослоистые, Sc - слоисто-кучевые, Ns - слоисто-дождевые, Cu - кучевые, Cb - кучево-дождевые. Подробнее классификацию облаков см. в Атласе облаков (PDF).
T - Температура воздуха - температура, измеренная на высоте 2 м над землей.
Td - Температура точки росы - температура, при понижении до которой содержащийся в воздухе водяной пар достигнет насыщения.
f - Относительная влажность воздуха - влажноcть воздуха, измеренная на высоте 2 м над землей.
Te - Эффективная температура - температура, которую ощущает одетый по сезону человек в тени. Характеристика душности погоды. При расчете учитывается влияние влажности воздуха и скорости ветра на теплоощущения человека.
Tes - Эффективная температура на солнце - температура, которую ощущает человек, с поправкой на солнечный нагрев. Характеристика знойности погоды. Зависит от высоты солнца над горизонтом, облачности и скорости ветра. Ночью, в пасмурную погоду, а также при ветре 12 м/с и более поправка равна нулю.
P - Атмосферное давление - приведенное к уровню моря атмосферное давление.
Po - Атмосферное давление - измеренное на уровне метеостанции атмосферное давление.
Tmin - Минимальная температура - минимум температуры воздуха на высоте 2 м над землей.
Tmax - Максимальная температура - максимум температуры воздуха на высоте 2 м над землей.
R - Количество осадков - Количество выпавших осадков за период времени, мм. При наведении курсора мыши на число - период времени, за который выпало указанное количество осадков.
R24 - Количество осадков - Количество выпавших осадков за 24 часа, мм.
S - Снежный покров - Высота снежного покрова, см. При наведении курсора мыши на число - состояние снежного покрова и степень покрытия местности в баллах.